Weather History for EINN - November, 2014

Change the Weather History Date:

Monday, November 24, 2014

  Actual Average Record
Temperature  
Mean Temperature 42 °F -  
Max Temperature 49 °F 49 °F 57 °F (2001)
Min Temperature 34 °F 38 °F 32 °F (2012)
Degree Days  
Heating Degree Days 24    
Moisture  
Dew Point 40 °F    
Average Humidity 90    
Maximum Humidity 100    
Minimum Humidity 74    
Precipitation  
Precipitation 0.00 in 0.13 in - ()
Sea Level Pressure  
Sea Level Pressure 30.24 in    
Wind  
Wind Speed 6 mph ()    
Max Wind Speed 9 mph    
Max Gust Speed -    
Visibility 7.4 miles    
Events Rain    
Averages and records for this station are not official NWS values.
T = Trace of Precipitation, MM = Missing Value Source: Averaged Metar Reports

Daily Weather History Graph

Daily Weather History Graph

Search for Another Location

Airport or City:

Trip Planner

Search our weather history database for the weather conditions in past years. The results will help you decide how hot, cold, wet, or windy it might be!

Date:

Astronomy

Nov. 24, 2014 Rise Set
Actual Time 8:13 AM GMT 4:30 PM GMT
Civil Twilight 7:34 AM GMT 5:10 PM GMT
Nautical Twilight 6:51 AM GMT 5:53 PM GMT
Astronomical Twilight 6:10 AM GMT 6:34 PM GMT
Moon 9:52 AM GMT (11/24) 6:40 PM GMT (11/24)
Length of Visible Light 9h 36m
Length of Day
8h 17m
Waxing Crescent, 5% of the Moon is Illuminated
Nov 24
Waxing Crescent
Nov 29
First Quarter
Dec 6
Full
Dec 14
Last Quarter
Dec 22
New

Hourly Weather History & Observations

Time (GMT) Temp. Windchill Dew Point Humidity Pressure Visibility Wind Dir Wind Speed Gust Speed Precip Events Conditions
12:00 AM 36 °F - 34 °F 90% 30.23 in 10 mi SE 4.5 mph - -   Scattered Clouds
12:00 AM 35.6 °F 31.7 °F 33.8 °F 93% 30.21 in 6.2 mi SE 4.6 mph - N/A   Partly Cloudy
12:30 AM 37.4 °F 33.8 °F 33.8 °F 87% 30.21 in 6.2 mi ESE 4.6 mph - N/A   Partly Cloudy
1:00 AM 36 °F - 34 °F 90% 30.23 in 10 mi SE 4.5 mph - -   Scattered Clouds
1:00 AM 35.6 °F 31.7 °F 33.8 °F 93% 30.21 in 6.2 mi SE 4.6 mph - N/A   Partly Cloudy
1:30 AM 35.6 °F 30.7 °F 33.8 °F 93% 30.21 in 6.2 mi ESE 5.8 mph - N/A   Partly Cloudy
2:00 AM 36 °F - 34 °F 90% 30.23 in 10 mi ESE 6.7 mph - -   Scattered Clouds
2:00 AM 35.6 °F 30.7 °F 33.8 °F 93% 30.21 in 6.2 mi ESE 5.8 mph - N/A   Partly Cloudy
2:30 AM 35.6 °F 29.9 °F 33.8 °F 93% 30.21 in 6.2 mi ESE 6.9 mph - N/A   Scattered Clouds
3:00 AM 36 °F - 34 °F 89% 30.22 in 10 mi ESE 6.7 mph - -   Scattered Clouds
3:00 AM 35.6 °F 29.9 °F 33.8 °F 93% 30.21 in 6.2 mi ESE 6.9 mph - N/A   Scattered Clouds
3:30 AM 35.6 °F 29.9 °F 33.8 °F 93% 30.21 in 6.2 mi ESE 6.9 mph - N/A   Scattered Clouds
4:00 AM 36 °F - 34 °F 90% 30.22 in 10 mi ESE 6.7 mph - -   Scattered Clouds
4:00 AM 35.6 °F 29.9 °F 33.8 °F 93% 30.21 in 6.2 mi ESE 6.9 mph - N/A   Partly Cloudy
4:30 AM 35.6 °F 30.7 °F 33.8 °F 93% 30.21 in 6.2 mi ESE 5.8 mph - N/A   Partly Cloudy
5:00 AM 36 °F - 34 °F 90% 30.22 in 10 mi ESE 4.5 mph - -   Scattered Clouds
5:00 AM 35.6 °F 31.7 °F 33.8 °F 93% 30.21 in 6.2 mi ESE 4.6 mph - N/A   Scattered Clouds
5:30 AM 35.6 °F 30.7 °F 35.6 °F 100% 30.21 in 6.2 mi ESE 5.8 mph - N/A   Partly Cloudy
6:00 AM 37 °F - 35 °F 91% 30.22 in 10 mi ESE 6.7 mph - -   Scattered Clouds
6:00 AM 37.4 °F 32.8 °F 35.6 °F 93% 30.21 in 6.2 mi ESE 5.8 mph - N/A   Scattered Clouds
6:30 AM 37.4 °F 32.1 °F 35.6 °F 93% 30.18 in 6.2 mi ESE 6.9 mph - N/A   Mostly Cloudy
7:00 AM 38 °F - 36 °F 87% 30.21 in 16 mi ESE 8.9 mph - -   Scattered Clouds
7:00 AM 37.4 °F 31.4 °F 35.6 °F 93% 30.18 in 6.2 mi ESE 8.1 mph - N/A   Mostly Cloudy
7:30 AM 37.4 °F 31.4 °F 35.6 °F 93% 30.18 in 6.2 mi ESE 8.1 mph - N/A   Mostly Cloudy
8:00 AM 38 °F - 36 °F 88% 30.22 in 25 mi ESE 6.7 mph - -   Scattered Clouds
8:00 AM 37.4 °F 32.1 °F 35.6 °F 93% 30.21 in 6.2 mi ESE 6.9 mph - N/A   Mostly Cloudy
8:30 AM 37.4 °F 32.1 °F 37.4 °F 100% 30.21 in 6.2 mi SE 6.9 mph - N/A   Mostly Cloudy
9:00 AM 39 °F - 37 °F 89% 30.24 in 25 mi ESE 8.9 mph - -   Scattered Clouds
9:00 AM 39.2 °F 33.6 °F 37.4 °F 93% 30.21 in 6.2 mi ESE 8.1 mph - N/A   Mostly Cloudy
9:30 AM 39.2 °F 33.0 °F 37.4 °F 93% 30.24 in 6.2 mi ESE 9.2 mph - N/A   Mostly Cloudy
10:00 AM 42 °F - 39 °F 83% 30.25 in 25 mi ESE 6.7 mph - -   Overcast
10:00 AM 42.8 °F 38.6 °F 39.2 °F 87% 30.24 in 6.2 mi ESE 6.9 mph - N/A   Mostly Cloudy
10:30 AM 44.6 °F 40.7 °F 39.2 °F 81% 30.24 in 6.2 mi ESE 6.9 mph - N/A   Mostly Cloudy
11:00 AM 44 °F - 40 °F 80% 30.26 in 25 mi ESE 6.7 mph - -   Mostly Cloudy
12:00 PM 47 °F - 42 °F 75% 30.26 in 25 mi ESE 8.9 mph - -   Mostly Cloudy
12:00 PM 46.4 °F 41.9 °F 41.0 °F 81% 30.24 in 6.2 mi ESE 9.2 mph - N/A   Mostly Cloudy
12:30 PM 48.2 °F - 42.8 °F 82% 30.24 in 6.2 mi SE 8.1 mph - N/A   Mostly Cloudy
1:00 PM 49 °F - 43 °F 74% 30.25 in 25 mi SE 8.9 mph - -   Mostly Cloudy
1:00 PM 48.2 °F - 42.8 °F 82% 30.24 in 6.2 mi SE 8.1 mph - N/A   Mostly Cloudy
1:30 PM 50.0 °F - 42.8 °F 76% 30.24 in 6.2 mi SE 5.8 mph - N/A   Mostly Cloudy
2:00 PM 49 °F - 44 °F 76% 30.25 in 25 mi SSE 8.9 mph - -   Overcast
2:00 PM 50.0 °F - 44.6 °F 82% 30.24 in 6.2 mi SSE 8.1 mph - N/A   Mostly Cloudy
2:30 PM 50.0 °F - 44.6 °F 82% 30.24 in 6.2 mi SSE 8.1 mph - N/A   Light Drizzle
3:00 PM 49 °F - 45 °F 81% 30.24 in 12 mi SSE 8.9 mph - - Rain Light Drizzle
3:00 PM 50.0 °F - 44.6 °F 82% 30.24 in 6.2 mi SSE 8.1 mph - N/A   Mostly Cloudy
3:30 PM 50.0 °F - 44.6 °F 82% 30.24 in 6.2 mi SSE 6.9 mph - N/A   Mostly Cloudy
4:00 PM 49 °F - 45 °F 82% 30.25 in 12 mi SSE 6.7 mph - -   Overcast
4:00 PM 48.2 °F - 44.6 °F 87% 30.24 in 6.2 mi SSE 5.8 mph - N/A   Mostly Cloudy
4:30 PM 48.2 °F - 44.6 °F 87% 30.24 in 6.2 mi SSE 5.8 mph - N/A   Light Drizzle
5:00 PM 49 °F - 47 °F 91% 30.25 in 4 mi SSW 6.7 mph - - Rain Light Rain
5:00 PM 48.2 °F - 46.4 °F 93% 30.24 in 3.7 mi SSW 5.8 mph - N/A Rain Light Rain
5:30 PM 46.4 °F 43.5 °F 46.4 °F 100% 30.24 in 6.2 mi WNW 5.8 mph - N/A   Mostly Cloudy
6:00 PM 47 °F - 46 °F 94% 30.27 in 12 mi WNW 6.7 mph - - Rain Light Rain
6:00 PM 46.4 °F 43.5 °F 46.4 °F 100% 30.24 in 6.2 mi WNW 5.8 mph - N/A   Mostly Cloudy
6:30 PM 46.4 °F 42.9 °F 46.4 °F 100% 30.27 in 6.2 mi WNW 6.9 mph - N/A   Mostly Cloudy
7:00 PM 47 °F - 45 °F 92% 30.28 in 12 mi NW 6.7 mph - -   Overcast
7:00 PM 46.4 °F 43.5 °F 44.6 °F 93% 30.27 in 6.2 mi NW 5.8 mph - N/A   Mostly Cloudy
7:30 PM 46.4 °F 42.9 °F 46.4 °F 100% 30.27 in 6.2 mi NNW 6.9 mph - N/A   Mostly Cloudy
8:00 PM 46 °F - 45 °F 96% 30.29 in 12 mi NNW 6.7 mph - - Rain Light Rain
8:00 PM 46.4 °F 42.9 °F 44.6 °F 93% 30.27 in 6.2 mi NNW 6.9 mph - N/A   Mostly Cloudy
8:30 PM 46.4 °F 45.2 °F 44.6 °F 93% 30.27 in 6.2 mi NNW 3.5 mph - N/A   Mostly Cloudy
9:00 PM 46 °F - 45 °F 96% 30.29 in 12 mi WNW 4.5 mph - - Rain Light Drizzle
9:00 PM 46.4 °F 45.2 °F 44.6 °F 93% 30.27 in 6.2 mi WNW 3.5 mph - N/A   Light Drizzle
9:30 PM 46.4 °F - 44.6 °F 93% 30.27 in 6.2 mi Calm Calm - N/A   Mostly Cloudy
10:00 PM 46 °F - 45 °F 94% 30.29 in 12 mi NW 2.2 mph - - Rain Light Drizzle
10:00 PM 46.4 °F - 44.6 °F 93% 30.27 in 6.2 mi NW 1.2 mph - N/A   Overcast
10:30 PM 44.6 °F 43.1 °F 44.6 °F 100% 30.27 in 6.2 mi NW 3.5 mph - N/A   Mostly Cloudy
11:00 PM 45 °F - 45 °F 98% 30.28 in 7 mi NNW 4.5 mph - -   Mist
11:00 PM 44.6 °F 43.1 °F 44.6 °F 100% 30.27 in 6.2 mi NNW 3.5 mph - N/A   Overcast
11:30 PM 44.6 °F - 44.6 °F 100% 30.27 in 5.6 mi North 2.3 mph - N/A   Overcast